Weather History for Blythe, CA

Change the Weather History Date:

Friday, February 15, 2013

  Actual Average Record
Temperature  
Mean Temperature 65 °F -  
Max Temperature 75 °F 68 °F 84 °F (1981)
Min Temperature 53 °F 45 °F 27 °F (1990)
Growing Degree Days 15 (Base 50)    
Moisture  
Dew Point 22 °F    
Average Humidity 22    
Maximum Humidity 31    
Minimum Humidity 11    
Precipitation  
Precipitation 0.00 in - - ()
Sea Level Pressure  
Sea Level Pressure 30.21 in    
Wind  
Wind Speed 11 mph (North)    
Max Wind Speed 16 mph    
Max Gust Speed 23 mph    
Visibility 10 miles    
Events      
Averages and records for this station are not official NWS values.
T = Trace of Precipitation, MM = Missing Value Source: NWS Daily Summary

Daily Weather History Graph

Daily Weather History Graph

Search for Another Location

Airport:

Trip Planner

Search our weather history database for the weather conditions in past years. The results will help you decide how hot, cold, wet, or windy it might be!

Date:

Astronomy

Feb. 15, 2013 Rise Set
Actual Time 6:22 AM PST 5:23 PM PST
Civil Twilight 5:57 AM PST 5:49 PM PST
Nautical Twilight 5:28 AM PST 6:18 PM PST
Astronomical Twilight 4:59 AM PST 6:47 PM PST
Moon 9:20 AM PST (2/15) 11:07 PM PST (2/15)
Length of Visible Light 11h 51m
Length of Day
11h 00m
Waxing Crescent, 31% of the Moon is Illuminated
Feb 15
Waxing Crescent
Feb 17
First Quarter
Feb 25
Full
Mar 4
Last Quarter
Mar 11
New

Hourly Weather History & Observations

Time (PST) Temp. Dew Point Humidity Pressure Visibility Wind Dir Wind Speed Gust Speed Precip Events Conditions
12:52 AM 61.0 °F 23.0 °F 23% 30.15 in 10.0 mi North 15.0 mph - N/A   Clear
1:52 AM 57.9 °F 23.0 °F 26% 30.16 in 10.0 mi North 9.2 mph - N/A   Clear
2:52 AM 57.9 °F 21.9 °F 25% 30.15 in 10.0 mi NNW 13.8 mph - N/A   Clear
3:52 AM 59.0 °F 21.0 °F 23% 30.16 in 10.0 mi NNW 15.0 mph 23.0 mph N/A   Clear
4:52 AM 57.9 °F 21.0 °F 24% 30.18 in 10.0 mi NNW 15.0 mph - N/A   Clear
5:52 AM 55.0 °F 21.9 °F 28% 30.20 in 10.0 mi North 8.1 mph - N/A   Clear
6:52 AM 55.9 °F 21.9 °F 27% 30.22 in 10.0 mi North 13.8 mph - N/A   Clear
7:52 AM 61.0 °F 21.9 °F 22% 30.24 in 10.0 mi North 16.1 mph - N/A   Clear
8:52 AM 61.0 °F 30.0 °F 31% 30.27 in 10.0 mi ESE 5.8 mph - N/A   Clear
9:52 AM 66.9 °F 21.9 °F 18% 30.27 in 10.0 mi NNE 8.1 mph 23.0 mph N/A   Clear
10:52 AM 70.0 °F 21.9 °F 16% 30.27 in 10.0 mi ENE 10.4 mph - N/A   Clear
11:52 AM 73.0 °F 19.0 °F 13% 30.25 in 10.0 mi NNE 12.7 mph 18.4 mph N/A   Clear
12:52 PM 75.0 °F 18.0 °F 12% 30.22 in 10.0 mi NNE 9.2 mph - N/A   Clear
1:52 PM 75.9 °F 18.0 °F 11% 30.19 in 10.0 mi NNW 8.1 mph - N/A   Clear
2:52 PM 75.9 °F 18.0 °F 11% 30.17 in 10.0 mi Variable 4.6 mph - N/A   Clear
3:52 PM 73.0 °F 24.1 °F 16% 30.17 in 10.0 mi East 11.5 mph - N/A   Clear
5:52 PM 63.0 °F 30.0 °F 29% 30.19 in 10.0 mi North 4.6 mph - N/A   Clear
6:52 PM 62.1 °F 19.9 °F 20% 30.20 in 10.0 mi NW 6.9 mph - N/A   Clear
7:52 PM 64.0 °F 19.0 °F 18% 30.21 in 10.0 mi North 10.4 mph - N/A   Clear
8:52 PM 61.0 °F 19.0 °F 20% 30.23 in 10.0 mi North 6.9 mph - N/A   Clear
9:52 PM 57.0 °F 21.0 °F 25% 30.24 in 10.0 mi North 9.2 mph - N/A   Clear
10:52 PM 55.0 °F 21.0 °F 27% 30.24 in 10.0 mi North 8.1 mph - N/A   Clear
11:52 PM 53.1 °F 21.9 °F 30% 30.25 in 10.0 mi Calm Calm - N/A   Clear